Location: Newark
(43.6583°N, 1.6617°E)
Time: 18:03:26
(UTC+00:00)

Vanguard 1 Rocket - Pass Details

Date: 23 August 2019
Orbit: 650 x 4226 km, 34.3° (Epoch: 13 October)

Event Time Altitude Azimuth Distance (km) Brightness Sun altitude
Rises 06:26:12 0° 263° (W) 3,534 9.8 13.3°
Reaches altitude 10° 06:28:39 10° 251° (WSW) 2,858 9.4 13.8°
Maximum altitude 06:34:30 28° 194° (SSW) 2,442 9.6 14.8°
Drops below altitude 10° 06:44:01 10° 142° (SE) 4,784 11.7 16.5°
Sets 06:49:43 0° 133° (SE) 6,458 12.5 17.6°
